Flag for Germany Weather past 2 weeks in Würselen, North Rhine-Westphalia, Germany

Now
59 °F

Sunny.


Feels Like: 57 °F
Forecast: 37 / 59 °F
Wind: 10 mph from North

Location: Geilenkirchen Airport

Current Time: Apr 21, 2015 at 10:07:25 PM

Latest Report: Apr 21, 2015 at 8:50 PM


Visibility: 10 mi

Pressure: 30.42 "Hg

Humidity: 55%

Dew point: 43 °F

Location of WürselenLocation

Historic Weather in Würselen — Graph

°F

Würselen temperature yesterday

Maximum temperature yesterday: 66 °F (at 3:50 PM)
Minimum temperature yesterday: 36 °F (at 6:50 AM)
Average temperature yesterday: 53 °F

Past Weeks' High & Low Weather Summary

 TemperatureHumidityPressure
High77 °F (Apr 15, 3:50 PM)100% (Apr 6, 11:50 PM)30.66 "Hg (Apr 6, 11:50 PM)
Low30 °F (Apr 7, 4:50 AM)27% (Apr 10, 2:50 PM)29.95 "Hg (Apr 15, 5:50 PM)
Average53 °F65%30.29 "Hg
* Reported Apr 6 8:50 PM — Apr 21 8:50 PM, Würselen, Weather by CustomWeather, © 2015

Note: Actual official high and low records may vary slightly from our data, if they occured in-between our weather recording intervals... More about our weather records

Advertising

Würselen weather history for previous 24 hours

 ConditionsComfort  
Time TempWeatherWind HumidityBarometerVisibility
8:50 PM
Tue, Apr 21
59 °FSunny.10 mph55%30.42 "Hg10 mi
7:50 PM66 °FSunny.7 mph32%30.42 "Hg10 mi
6:50 PM68 °FSunny.10 mph30%30.42 "Hg10 mi
5:50 PM70 °FSunny.9 mph31%30.42 "Hg10 mi
4:50 PM70 °FSunny.9 mph31%30.42 "Hg10 mi
3:50 PM70 °FSunny.8 mph35%30.42 "Hg10 mi
2:50 PM66 °FSunny.7 mph40%30.45 "Hg10 mi
1:50 PM66 °FSunny.5 mph43%30.45 "Hg10 mi
12:50 PM63 °FSunny.6 mph49%30.48 "Hg10 mi
11:50 AM59 °FSunny.7 mph59%30.48 "Hg10 mi
10:50 AM57 °FSunny.3 mph59%30.48 "Hg10 mi
9:50 AM54 °FSunny.2 mph67%30.48 "Hg10 mi
8:50 AM48 °FSunny.2 mph76%30.45 "Hg10 mi
7:50 AM43 °FSunny.No wind87%30.45 "Hg10 mi
6:50 AM39 °FClear.No wind93%30.42 "Hg10 mi
5:50 AM41 °FClear.2 mph87%30.42 "Hg10 mi
4:50 AM41 °FClear.No wind87%30.42 "Hg10 mi
3:50 AM43 °FClear.2 mph76%30.42 "Hg10 mi
2:50 AM45 °FClear.2 mph76%30.42 "Hg10 mi
1:50 AM48 °FClear.1 mph71%30.39 "Hg10 mi
12:50 AM52 °FClear.2 mph58%30.39 "Hg10 mi
11:50 PM
Mon, Apr 20
52 °FClear.2 mph62%30.39 "Hg10 mi
10:50 PM54 °FClear.No wind58%30.39 "Hg10 mi
Weather by CustomWeather, © 2015

See weather overviewHow to use our weather pages